Lone Rock, WI

7:47 AM CDT on October 22, 2017 (GMT -0500)
Tri-County Regional

Weather History for KLNR - February, 2013

Change the Weather History Date:

Thursday, February 21, 2013

  Actual Average Record
Temperature  
Mean Temperature 18 °F -  
Max Temperature 26 °F 34 °F 64 °F (2017)
Min Temperature 10 °F 18 °F -18 °F (2008)
Degree Days  
Heating Degree Days 47    
Moisture  
Dew Point 14 °F    
Average Humidity 79    
Maximum Humidity 86    
Minimum Humidity 67    
Precipitation  
Precipitation 0.01 in - - ()
Sea Level Pressure  
Sea Level Pressure 30.26 in    
Wind  
Wind Speed 8 mph (ENE)    
Max Wind Speed 25 mph    
Max Gust Speed 32 mph    
Visibility 7 miles    
Events Snow    
Averages and records for this station are not official NWS values.
T = Trace of Precipitation, MM = Missing Value Source: NWS Daily Summary

Daily Weather History Graph

Daily Weather History Graph

Search for Another Location

Airport or City:

Trip Planner

Search our weather history database for the weather conditions in past years. The results will help you decide how hot, cold, wet, or windy it might be!

Date:

Astronomy

Feb. 21, 2013 Rise Set
Actual Time 6:49 AM CST 5:39 PM CST
Civil Twilight 6:20 AM CST 6:08 PM CST
Nautical Twilight 5:47 AM CST 6:42 PM CST
Astronomical Twilight 5:14 AM CST 7:14 PM CST
Moon 1:50 PM CST (2/21) 3:58 AM CST (2/21)
Length of Visible Light 11h 48m
Length of Day
10h 50m
Waxing Gibbous, 84% of the Moon is Illuminated
Feb 21
Waxing Gibbous
Feb 25
Full
Mar 4
Last Quarter
Mar 11
New
Mar 19
First Quarter

Hourly Weather History & Observations

Time (CST) Temp. Windchill Dew Point Humidity Pressure Visibility Wind Dir Wind Speed Gust Speed Precip Events Conditions
12:56 AM 10.9 °F - 7.0 °F 84% 30.41 in 8.0 mi Calm Calm - N/A   Clear
1:56 AM 10.9 °F - 7.0 °F 84% 30.41 in 7.0 mi Calm Calm - N/A   Clear
2:56 AM 10.9 °F - 7.0 °F 84% 30.41 in 10.0 mi Calm Calm - N/A   Clear
3:56 AM 10.9 °F - 7.0 °F 84% 30.43 in 10.0 mi Calm Calm - N/A   Clear
4:56 AM 14.0 °F 6.5 °F 5.0 °F 67% 30.43 in 10.0 mi NE 4.6 mph - N/A   Clear
5:56 AM 12.9 °F 2.6 °F 5.0 °F 71% 30.33 in 10.0 mi ENE 6.9 mph - N/A   Clear
6:33 AM 12.2 °F 6.1 °F 5.0 °F 73% 30.40 in 10.0 mi South 3.5 mph - N/A   Clear
6:56 AM 12.0 °F - 5.0 °F 73% 30.43 in 10.0 mi Calm Calm - N/A   Clear
7:56 AM 14.0 °F 2.9 °F 6.1 °F 71% 30.45 in 10.0 mi ENE 8.1 mph - N/A   Clear
8:17 AM 14.0 °F 2.9 °F 6.8 °F 73% 30.43 in 10.0 mi ENE 8.1 mph - N/A   Mostly Cloudy
8:56 AM 15.1 °F 1.8 °F 8.1 °F 74% 30.43 in 10.0 mi ENE 11.5 mph - N/A   Clear
9:56 AM 16.0 °F 2.9 °F 9.0 °F 74% 30.42 in 10.0 mi East 11.5 mph - N/A   Clear
10:56 AM 18.0 °F 4.8 °F 10.0 °F 71% 30.41 in 10.0 mi East 12.7 mph - N/A   Clear
11:56 AM 19.0 °F 6.1 °F 10.9 °F 71% 30.37 in 10.0 mi East 12.7 mph - N/A   Partly Cloudy
12:15 PM 19.4 °F 7.9 °F 12.2 °F 74% 30.34 in 10.0 mi ENE 10.4 mph - N/A   Mostly Cloudy
12:56 PM 19.9 °F 8.6 °F 12.0 °F 71% 30.34 in 10.0 mi ENE 10.4 mph - N/A   Overcast
1:56 PM 21.0 °F 9.9 °F 14.0 °F 74% 30.30 in 9.0 mi ENE 10.4 mph - N/A   Overcast
2:13 PM 21.2 °F 10.1 °F 15.8 °F 80% 30.27 in 10.0 mi NE 10.4 mph - N/A   Overcast
2:56 PM 21.9 °F 11.0 °F 16.0 °F 78% 30.29 in 10.0 mi East 10.4 mph - N/A   Overcast
3:56 PM 23.0 °F 11.7 °F 18.0 °F 81% 30.27 in 6.0 mi ENE 11.5 mph - N/A   Haze
4:56 PM 23.0 °F 9.6 °F 19.0 °F 85% 30.22 in 5.0 mi ENE 16.1 mph - N/A   Overcast
5:44 PM 23.0 °F 11.1 °F 19.4 °F 86% 30.17 in 5.0 mi ENE 12.7 mph 20.7 mph N/A   Overcast
5:56 PM 24.1 °F 11.5 °F 19.0 °F 81% 30.20 in 6.0 mi ENE 15.0 mph 23.0 mph N/A   Haze
6:56 PM 24.1 °F 11.0 °F 19.9 °F 84% 30.18 in 6.0 mi East 16.1 mph 26.5 mph N/A   Overcast
7:56 PM 24.1 °F 8.0 °F 19.9 °F 84% 30.11 in 4.0 mi ENE 25.3 mph 31.1 mph N/A   Overcast
8:46 PM 24.8 °F 11.1 °F 21.2 °F 86% 30.08 in 6.0 mi East 18.4 mph 28.8 mph N/A   Overcast
8:56 PM 25.0 °F 10.6 °F 21.0 °F 85% 30.09 in 7.0 mi East 20.7 mph 27.6 mph N/A   Overcast
9:39 PM 26.6 °F 12.4 °F 21.2 °F 80% 30.06 in 9.0 mi East 21.9 mph 32.2 mph 0.00 in   Overcast
9:56 PM 26.1 °F 12.0 °F 21.9 °F 84% 30.09 in 9.0 mi East 20.7 mph 26.5 mph 0.00 in   Overcast
10:56 PM 26.1 °F 12.0 °F 21.9 °F 84% 30.07 in 2.5 mi East 20.7 mph 25.3 mph 0.00 in Snow Light Snow
11:06 PM 26.6 °F 13.8 °F 21.2 °F 80% 30.04 in 1.2 mi East 17.3 mph 25.3 mph 0.00 in Snow Light Snow
11:18 PM 26.6 °F 13.4 °F 21.2 °F 80% 30.03 in 0.8 mi East 18.4 mph - 0.00 in Snow Light Snow
11:34 PM 26.6 °F 14.7 °F 21.2 °F 80% 30.02 in 1.0 mi East 15.0 mph - 0.01 in Snow Light Snow
11:44 PM 26.6 °F 13.8 °F 21.2 °F 80% 30.01 in 0.8 mi ENE 17.3 mph - 0.01 in Snow Light Snow
11:56 PM 26.1 °F 13.1 °F 21.9 °F 84% 30.01 in 0.8 mi ENE 17.3 mph - 0.01 in Snow Light Snow